Satellite: NO-44
Catalog number: 26931
Epoch time:      11209.66565992
Element set:     811
Inclination:      067.0505 deg
RA of node:       236.6474 deg
Eccentricity:    0.0006157
Arg of perigee:   256.4074 deg
Mean anomaly:     103.6378 deg
Mean motion:   14.29670120 rev/day
Decay rate:       1.17e-06 rev/day^2
Epoch rev:           51285
Checksum:              302

Satellite: SO-50
Catalog number: 27607
Epoch time:      11208.49510150
Element set:    0526
Inclination:      064.5567 deg
RA of node:       205.1856 deg
Eccentricity:    0.0076213
Arg of perigee:   312.6787 deg
Mean anomaly:     046.7924 deg
Mean motion:   14.71777682 rev/day
Decay rate:       1.63e-06 rev/day^2
Epoch rev:           46202
Checksum:              306

Satellite: CO-55
Catalog number: 27844
Epoch time:      11208.52840971
Element set:     162
Inclination:      098.7066 deg
RA of node:       216.6436 deg
Eccentricity:    0.0010755
Arg of perigee:   081.0429 deg
Mean anomaly:     279.1967 deg
Mean motion:   14.20827920 rev/day
Decay rate:        9.1e-07 rev/day^2
Epoch rev:           41864
Checksum:              318

Satellite: CO-57
Catalog number: 27848
Epoch time:      11208.54853173
Element set:    0114
Inclination:      098.7134 deg
RA of node:       215.8663 deg
Eccentricity:    0.0010824
Arg of perigee:   086.1006 deg
Mean anomaly:     274.1418 deg
Mean motion:   14.20605772 rev/day
Decay rate:        8.5e-07 rev/day^2
Epoch rev:           41859
Checksum:              306

Satellite: AO-51
Catalog number: 28375
Epoch time:      11208.87676489
Element set:    0032
Inclination:      098.1012 deg
RA of node:       185.1884 deg
Eccentricity:    0.0083752
Arg of perigee:   307.5928 deg
Mean anomaly:     051.7683 deg
Mean motion:   14.40769651 rev/day
Decay rate:        5.1e-07 rev/day^2
Epoch rev:           37192
Checksum:              330

Satellite: CP3
Catalog number: 31129
Epoch time:      11208.72407920
Element set:    0929
Inclination:      097.8966 deg
RA of node:       230.5923 deg
Eccentricity:    0.0103404
Arg of perigee:   055.6361 deg
Mean anomaly:     305.4512 deg
Mean motion:   14.52524015 rev/day
Decay rate:       2.77e-06 rev/day^2
Epoch rev:           22672
Checksum:              282

Satellite: CO-65
Catalog number: 32785
Epoch time:      11209.60045644
Element set:      54
Inclination:      097.8468 deg
RA of node:       272.6968 deg
Eccentricity:    0.0015705
Arg of perigee:   044.3346 deg
Mean anomaly:     315.9132 deg
Mean motion:   14.82058730 rev/day
Decay rate:       1.74e-06 rev/day^2
Epoch rev:           17567
Checksum:              321

Satellite: PRISM
Catalog number: 33493
Epoch time:      11209.68973041
Element set:     813
Inclination:      098.1291 deg
RA of node:       338.9182 deg
Eccentricity:    0.0018358
Arg of perigee:   267.1623 deg
Mean anomaly:     092.7489 deg
Mean motion:   14.81803422 rev/day
Decay rate:       8.18e-06 rev/day^2
Epoch rev:           13566
Checksum:              320

Satellite: SOHLA-1
Catalog number: 33496
Epoch time:      11208.96934832
Element set:    0488
Inclination:      098.0836 deg
RA of node:       318.3950 deg
Eccentricity:    0.0006825
Arg of perigee:   003.4058 deg
Mean anomaly:     356.7188 deg
Mean motion:   14.69637617 rev/day
Decay rate:        2.6e-07 rev/day^2
Epoch rev:           13447
Checksum:              332

Satellite: TISAT-1
Catalog number: 36799
Epoch time:      11209.69901418
Element set:      86
Inclination:      098.0985 deg
RA of node:       278.3578 deg
Eccentricity:    0.0016161
Arg of perigee:   139.2646 deg
Mean anomaly:     220.9778 deg
Mean motion:   14.80634056 rev/day
Decay rate:       6.01e-06 rev/day^2
Epoch rev:            5645
Checksum:              334

Satellite: STUDSAT
Catalog number: 36801
Epoch time:      11208.82500573
Element set:    0224
Inclination:      098.1056 deg
RA of node:       277.3679 deg
Eccentricity:    0.0014229
Arg of perigee:   130.4129 deg
Mean anomaly:     229.8326 deg
Mean motion:   14.80808989 rev/day
Decay rate:      1.769e-05 rev/day^2
Epoch rev:           05631
Checksum:              309

Satellite: RAX
Catalog number: 37223
Epoch time:      11152.36844328
Element set:    0173
Inclination:      071.9713 deg
RA of node:       073.6151 deg
Eccentricity:    0.0021634
Arg of perigee:   311.5989 deg
Mean anomaly:     048.3343 deg
Mean motion:   14.77415682 rev/day
Decay rate:       6.35e-06 rev/day^2
Epoch rev:           02854
Checksum:              291

Satellite: OOREOS
Catalog number: 37224
Epoch time:      11153.29456974
Element set:    0179
Inclination:      071.9726 deg
RA of node:       071.8135 deg
Eccentricity:    0.0020315
Arg of perigee:   307.7637 deg
Mean anomaly:     052.1684 deg
Mean motion:   14.77036357 rev/day
Decay rate:       4.92e-06 rev/day^2
Epoch rev:           02867
Checksum:              309

Satellite: FO-69
Catalog number: 37227
Epoch time:      11208.50244384
Element set:    0092
Inclination:      071.9704 deg
RA of node:       310.3714 deg
Eccentricity:    0.0017972
Arg of perigee:   210.7452 deg
Mean anomaly:     149.2650 deg
Mean motion:   14.76616596 rev/day
Decay rate:       1.72e-06 rev/day^2
Epoch rev:           01527
Checksum:              296

